TimeEST,TemperatureF,Dew PointF,Humidity,Sea Level PressureIn,VisibilityMPH,Wind Direction,Wind SpeedMPH,Gust SpeedMPH,PrecipitationIn,Events,Conditions,WindDirDegrees,DateUTC
12:56 AM,37.0,28.9,73,30.17,8.0,Variable,3.5,-,N/A,,Overcast,0,2013-02-07 05:56:00
1:56 AM,37.0,28.9,73,30.15,8.0,Calm,Calm,-,N/A,,Overcast,0,2013-02-07 06:56:00
2:56 AM,35.1,28.9,78,30.16,7.0,NNW,4.6,-,N/A,,Overcast,330,2013-02-07 07:56:00
3:56 AM,35.1,30.0,82,30.15,7.0,NNW,4.6,-,N/A,,Overcast,340,2013-02-07 08:56:00
4:56 AM,36.0,30.0,79,30.14,7.0,NE,4.6,-,N/A,,Overcast,50,2013-02-07 09:56:00
5:56 AM,36.0,30.0,79,30.13,7.0,Calm,Calm,-,N/A,,Overcast,0,2013-02-07 10:56:00
6:56 AM,36.0,30.9,82,30.11,7.0,Calm,Calm,-,N/A,,Overcast,0,2013-02-07 11:56:00
7:56 AM,36.0,30.0,79,30.11,5.0,North,3.5,-,N/A,,Haze,350,2013-02-07 12:56:00
8:56 AM,36.0,30.9,82,30.11,5.0,NNE,4.6,-,N/A,,Haze,20,2013-02-07 13:56:00
9:56 AM,42.1,33.1,70,30.09,6.0,ESE,3.5,-,N/A,,Haze,110,2013-02-07 14:56:00
10:56 AM,48.0,33.1,56,30.07,8.0,SSE,3.5,-,N/A,,Partly Cloudy,160,2013-02-07 15:56:00
11:56 AM,54.0,34.0,47,30.05,10.0,ESE,4.6,-,N/A,,Partly Cloudy,110,2013-02-07 16:56:00
12:56 PM,57.9,34.0,41,30.00,10.0,South,5.8,-,N/A,,Partly Cloudy,180,2013-02-07 17:56:00
1:56 PM,63.0,36.0,37,29.95,10.0,SSE,3.5,-,N/A,,Partly Cloudy,160,2013-02-07 18:56:00
2:56 PM,66.9,37.0,33,29.93,10.0,SSW,8.1,-,N/A,,Scattered Clouds,210,2013-02-07 19:56:00
3:56 PM,66.0,37.9,36,29.91,10.0,South,9.2,18.4,N/A,,Scattered Clouds,190,2013-02-07 20:56:00
4:56 PM,64.9,37.9,37,29.89,10.0,South,12.7,-,N/A,,Scattered Clouds,170,2013-02-07 21:56:00
5:56 PM,62.1,39.9,44,29.88,10.0,South,8.1,-,N/A,,Scattered Clouds,170,2013-02-07 22:56:00
6:56 PM,59.0,39.0,48,29.89,10.0,South,6.9,-,N/A,,Scattered Clouds,170,2013-02-07 23:56:00
7:56 PM,59.0,39.0,48,29.88,10.0,South,11.5,-,N/A,,Scattered Clouds,170,2013-02-08 00:56:00
8:56 PM,57.0,37.9,49,29.88,10.0,South,12.7,-,N/A,,Scattered Clouds,170,2013-02-08 01:56:00
9:56 PM,55.9,37.9,51,29.87,10.0,South,8.1,-,N/A,,Mostly Cloudy,180,2013-02-08 02:56:00
10:56 PM,55.0,37.9,53,29.85,10.0,South,10.4,-,N/A,,Mostly Cloudy,170,2013-02-08 03:56:00
11:56 PM,55.0,43.0,64,29.85,10.0,South,12.7,-,N/A,,Overcast,190,2013-02-08 04:56:00